Time,TemperatureF,DewpointF,PressureIn,WindDirection,WindDirectionDegrees,WindSpeedMPH,WindSpeedGustMPH,Humidity,HourlyPrecipIn,Conditions,Clouds,dailyrainin,SoftwareType,DateUTC
2013-05-26 00:14:00,56.0,45.0,29.97,NNW,331,0.0,-999.0,67,-99.99,,,0.00,weatherlink.com 1.10,2013-05-26 07:14:00,
2013-05-26 00:29:00,56.0,46.0,29.97,NNW,331,0.0,-999.0,68,-99.99,,,0.00,weatherlink.com 1.10,2013-05-26 07:29:00,
2013-05-26 00:44:00,55.9,46.0,29.97,NNW,331,0.0,-999.0,69,-99.99,,,0.00,weatherlink.com 1.10,2013-05-26 07:44:00,
2013-05-26 00:59:00,55.6,46.0,29.98,NNW,331,0.0,-999.0,70,-99.99,,,0.00,weatherlink.com 1.10,2013-05-26 07:59:00,
2013-05-26 01:14:00,55.3,46.0,29.98,NNW,331,0.0,-999.0,71,-99.99,,,0.00,weatherlink.com 1.10,2013-05-26 08:14:00,
2013-05-26 01:29:00,55.0,46.0,29.98,NW,318,0.0,-999.0,72,-99.99,,,0.00,weatherlink.com 1.10,2013-05-26 08:29:00,
2013-05-26 01:44:00,54.5,46.0,29.98,NW,318,0.0,-999.0,73,-99.99,,,0.00,weatherlink.com 1.10,2013-05-26 08:44:00,
2013-05-26 01:59:00,54.4,46.0,29.98,NW,318,0.0,-999.0,74,-99.99,,,0.00,weatherlink.com 1.10,2013-05-26 08:59:00,
2013-05-26 02:14:00,54.1,46.0,29.98,NW,318,0.0,-999.0,75,-99.99,,,0.00,weatherlink.com 1.10,2013-05-26 09:14:00,
2013-05-26 02:29:00,54.1,47.0,29.98,NW,318,0.0,-999.0,76,-99.99,,,0.00,weatherlink.com 1.10,2013-05-26 09:29:00,
2013-05-26 02:44:00,53.9,47.0,29.98,NW,318,0.0,-999.0,76,-99.99,,,0.00,weatherlink.com 1.10,2013-05-26 09:44:00,
2013-05-26 02:59:00,53.9,47.0,29.99,NW,318,1.0,-999.0,76,-99.99,,,0.00,weatherlink.com 1.10,2013-05-26 09:59:00,
2013-05-26 03:14:00,53.6,46.0,29.99,NW,318,0.0,-999.0,76,-99.99,,,0.00,weatherlink.com 1.10,2013-05-26 10:14:00,
2013-05-26 03:29:00,53.5,46.0,29.98,NW,318,1.0,-999.0,77,-99.99,,,0.00,weatherlink.com 1.10,2013-05-26 10:29:00,
2013-05-26 03:44:00,53.3,46.0,29.99,NW,318,0.0,-999.0,77,-99.99,,,0.00,weatherlink.com 1.10,2013-05-26 10:44:00,
2013-05-26 03:59:00,52.9,46.0,29.99,NW,318,0.0,-999.0,78,-99.99,,,0.00,weatherlink.com 1.10,2013-05-26 10:59:00,
2013-05-26 04:14:00,52.8,46.0,29.99,NW,318,0.0,-999.0,79,-99.99,,,0.00,weatherlink.com 1.10,2013-05-26 11:14:00,
2013-05-26 04:29:00,52.9,47.0,29.99,NW,318,0.0,-999.0,79,-99.99,,,0.00,weatherlink.com 1.10,2013-05-26 11:29:00,
2013-05-26 04:44:00,52.8,46.0,29.99,NW,318,0.0,-999.0,79,-99.99,,,0.00,weatherlink.com 1.10,2013-05-26 11:44:00,
2013-05-26 04:59:00,52.3,46.0,29.99,NW,318,0.0,-999.0,79,-99.99,,,0.00,weatherlink.com 1.10,2013-05-26 11:59:00,
2013-05-26 05:14:00,52.2,46.0,30.00,NW,318,0.0,-999.0,80,-99.99,,,0.00,weatherlink.com 1.10,2013-05-26 12:14:00,
2013-05-26 05:29:00,51.9,46.0,30.00,NW,318,0.0,-999.0,80,-99.99,,,0.00,weatherlink.com 1.10,2013-05-26 12:29:00,
2013-05-26 05:44:00,51.3,45.0,30.00,NW,317,0.0,-999.0,80,-99.99,,,0.00,weatherlink.com 1.10,2013-05-26 12:44:00,
2013-05-26 05:59:00,50.1,45.0,30.00,NW,317,0.0,-999.0,81,-99.99,,,0.00,weatherlink.com 1.10,2013-05-26 12:59:00,
2013-05-26 06:14:00,49.5,44.0,30.00,NW,317,0.0,-999.0,82,-99.99,,,0.00,weatherlink.com 1.10,2013-05-26 13:14:00,
2013-05-26 06:29:00,49.1,44.0,30.01,NW,317,0.0,-999.0,83,-99.99,,,0.00,weatherlink.com 1.10,2013-05-26 13:29:00,
2013-05-26 06:44:00,48.9,44.0,30.02,NW,317,0.0,-999.0,84,-99.99,,,0.00,weatherlink.com 1.10,2013-05-26 13:44:00,
2013-05-26 06:59:00,49.4,45.0,30.02,North,360,0.0,-999.0,86,-99.99,,,0.00,weatherlink.com 1.10,2013-05-26 13:59:00,
2013-05-26 07:14:00,50.5,47.0,30.02,North,355,0.0,-999.0,86,-99.99,,,0.00,weatherlink.com 1.10,2013-05-26 14:14:00,
2013-05-26 07:29:00,52.8,48.0,30.02,North,355,0.0,-999.0,84,-99.99,,,0.00,weatherlink.com 1.10,2013-05-26 14:29:00,
2013-05-26 07:44:00,54.8,49.0,30.02,North,355,0.0,-999.0,80,-99.99,,,0.00,weatherlink.com 1.10,2013-05-26 14:44:00,
2013-05-26 07:59:00,56.2,49.0,30.03,North,355,0.0,-999.0,77,-99.99,,,0.00,weatherlink.com 1.10,2013-05-26 14:59:00,
2013-05-26 08:15:00,57.6,50.0,30.03,East,92,1.0,-999.0,75,-99.99,,,0.00,weatherlink.com 1.10,2013-05-26 15:15:00,
2013-05-26 08:30:00,59.2,51.0,30.03,NW,321,0.0,-999.0,73,-99.99,,,0.00,weatherlink.com 1.10,2013-05-26 15:30:00,
2013-05-26 08:45:00,60.9,50.0,30.02,NE,51,0.0,-999.0,68,-99.99,,,0.00,weatherlink.com 1.10,2013-05-26 15:45:00,
2013-05-26 09:00:00,62.4,50.0,30.03,NE,51,0.0,-999.0,65,-99.99,,,0.00,weatherlink.com 1.10,2013-05-26 16:00:00,
2013-05-26 09:15:00,63.2,50.0,30.03,North,360,0.0,-999.0,63,-99.99,,,0.00,weatherlink.com 1.10,2013-05-26 16:15:00,
2013-05-26 09:30:00,64.7,51.0,30.03,North,355,0.0,-999.0,61,-99.99,,,0.00,weatherlink.com 1.10,2013-05-26 16:30:00,
2013-05-26 09:45:00,66.3,50.0,30.03,West,259,0.0,-999.0,56,-99.99,,,0.00,weatherlink.com 1.10,2013-05-26 16:45:00,
2013-05-26 10:00:00,67.6,50.0,30.02,NW,317,1.0,-999.0,54,-99.99,,,0.00,weatherlink.com 1.10,2013-05-26 17:00:00,
2013-05-26 10:15:00,69.1,49.0,30.02,WNW,294,4.0,-999.0,49,-99.99,,,0.00,weatherlink.com 1.10,2013-05-26 17:15:00,
2013-05-26 10:30:00,69.9,48.0,30.02,WNW,298,3.0,-999.0,46,-99.99,,,0.00,weatherlink.com 1.10,2013-05-26 17:30:00,
2013-05-26 10:45:00,70.3,48.0,30.02,NW,316,3.0,-999.0,46,-99.99,,,0.00,weatherlink.com 1.10,2013-05-26 17:45:00,
2013-05-26 11:00:00,70.9,48.0,30.02,NNW,333,3.0,-999.0,45,-99.99,,,0.00,weatherlink.com 1.10,2013-05-26 18:00:00,
2013-05-26 11:15:00,70.4,49.0,30.02,NW,319,0.0,-999.0,46,-99.99,,,0.00,weatherlink.com 1.10,2013-05-26 18:15:00,
2013-05-26 11:30:00,71.8,47.0,30.02,North,355,3.0,-999.0,41,-99.99,,,0.00,weatherlink.com 1.10,2013-05-26 18:30:00,
2013-05-26 11:45:00,72.3,47.0,30.02,NW,311,4.0,-999.0,41,-99.99,,,0.00,weatherlink.com 1.10,2013-05-26 18:45:00,
2013-05-26 12:00:00,72.7,45.0,30.02,NW,319,3.0,-999.0,37,-99.99,,,0.00,weatherlink.com 1.10,2013-05-26 19:00:00,
2013-05-26 12:15:00,73.0,47.0,30.02,NNW,333,3.0,-999.0,40,-99.99,,,0.00,weatherlink.com 1.10,2013-05-26 19:15:00,
2013-05-26 12:30:00,74.6,47.0,30.02,NW,324,0.0,-999.0,37,-99.99,,,0.00,weatherlink.com 1.10,2013-05-26 19:30:00,
2013-05-26 12:45:00,74.6,47.0,30.02,North,10,7.0,-999.0,37,-99.99,,,0.00,weatherlink.com 1.10,2013-05-26 19:45:00,
2013-05-26 13:00:00,74.7,44.0,30.02,WNW,288,3.0,-999.0,34,-99.99,,,0.00,weatherlink.com 1.10,2013-05-26 20:00:00,
2013-05-26 13:15:00,74.4,42.0,30.01,NW,325,3.0,-999.0,31,-99.99,,,0.00,weatherlink.com 1.10,2013-05-26 20:15:00,
2013-05-26 13:30:00,74.6,41.0,30.01,West,278,4.0,-999.0,30,-99.99,,,0.00,weatherlink.com 1.10,2013-05-26 20:30:00,
2013-05-26 13:45:00,75.6,50.0,30.01,NNE,13,0.0,-999.0,40,-99.99,,,0.00,weatherlink.com 1.10,2013-05-26 20:45:00,
2013-05-26 14:00:00,77.0,49.0,30.00,West,274,4.0,-999.0,38,-99.99,,,0.00,weatherlink.com 1.10,2013-05-26 21:00:00,
2013-05-26 14:15:00,77.2,52.0,30.00,West,261,6.0,-999.0,41,-99.99,,,0.00,weatherlink.com 1.10,2013-05-26 21:15:00,
2013-05-26 14:30:00,76.3,52.0,30.00,NNW,327,0.0,-999.0,43,-99.99,,,0.00,weatherlink.com 1.10,2013-05-26 21:30:00,
2013-05-26 14:45:00,76.1,51.0,30.00,WNW,288,3.0,-999.0,42,-99.99,,,0.00,weatherlink.com 1.10,2013-05-26 21:45:00,
2013-05-26 15:00:00,75.6,50.0,30.00,West,279,9.0,-999.0,41,-99.99,,,0.00,weatherlink.com 1.10,2013-05-26 22:00:00,
2013-05-26 15:15:00,75.4,52.0,30.00,WNW,302,1.0,-999.0,44,-99.99,,,0.00,weatherlink.com 1.10,2013-05-26 22:15:00,
2013-05-26 15:30:00,74.9,51.0,29.99,WNW,292,7.0,-999.0,43,-99.99,,,0.00,weatherlink.com 1.10,2013-05-26 22:30:00,
2013-05-26 15:45:00,75.6,50.0,29.99,WSW,238,7.0,-999.0,41,-99.99,,,0.00,weatherlink.com 1.10,2013-05-26 22:45:00,
2013-05-26 16:00:00,74.0,50.0,29.99,West,275,5.0,-999.0,43,-99.99,,,0.00,weatherlink.com 1.10,2013-05-26 23:00:00,
2013-05-26 16:16:00,73.5,50.0,29.99,SSW,205,0.0,-999.0,43,-99.99,,,0.00,weatherlink.com 1.10,2013-05-26 23:16:00,
2013-05-26 16:31:00,72.7,49.0,29.99,West,277,3.0,-999.0,44,-99.99,,,0.00,weatherlink.com 1.10,2013-05-26 23:31:00,
2013-05-26 16:46:00,72.8,50.0,29.99,WSW,252,4.0,-999.0,44,-99.99,,,0.00,weatherlink.com 1.10,2013-05-26 23:46:00,
2013-05-26 17:01:00,72.3,50.0,29.99,West,275,2.0,-999.0,46,-99.99,,,0.00,weatherlink.com 1.10,2013-05-27 00:01:00,
2013-05-26 17:16:00,72.3,48.0,29.99,West,267,4.0,-999.0,43,-99.99,,,0.00,weatherlink.com 1.10,2013-05-27 00:16:00,
2013-05-26 17:31:00,72.3,48.0,29.99,WNW,287,3.0,-999.0,43,-99.99,,,0.00,weatherlink.com 1.10,2013-05-27 00:31:00,
2013-05-26 17:46:00,71.1,48.0,29.99,WNW,285,3.0,-999.0,44,-99.99,,,0.00,weatherlink.com 1.10,2013-05-27 00:46:00,
2013-05-26 18:01:00,70.3,48.0,29.98,WSW,252,5.0,-999.0,46,-99.99,,,0.00,weatherlink.com 1.10,2013-05-27 01:01:00,
2013-05-26 18:16:00,69.8,48.0,29.98,WNW,284,2.0,-999.0,46,-99.99,,,0.00,weatherlink.com 1.10,2013-05-27 01:16:00,
2013-05-26 18:31:00,69.6,48.0,29.98,WNW,301,3.0,-999.0,47,-99.99,,,0.00,weatherlink.com 1.10,2013-05-27 01:31:00,
2013-05-26 18:46:00,69.3,48.0,29.99,West,279,5.0,-999.0,47,-99.99,,,0.00,weatherlink.com 1.10,2013-05-27 01:46:00,
2013-05-26 19:01:00,68.6,48.0,29.99,WNW,288,5.0,-999.0,48,-99.99,,,0.00,weatherlink.com 1.10,2013-05-27 02:01:00,
2013-05-26 19:16:00,67.9,47.0,29.98,West,267,6.0,-999.0,48,-99.99,,,0.00,weatherlink.com 1.10,2013-05-27 02:16:00,
2013-05-26 19:31:00,67.3,47.0,29.99,WNW,295,9.0,-999.0,49,-99.99,,,0.00,weatherlink.com 1.10,2013-05-27 02:31:00,
2013-05-26 19:46:00,66.3,47.0,29.99,NNW,346,1.0,-999.0,50,-99.99,,,0.00,weatherlink.com 1.10,2013-05-27 02:46:00,
2013-05-26 20:01:00,65.3,47.0,30.00,WNW,289,2.0,-999.0,51,-99.99,,,0.00,weatherlink.com 1.10,2013-05-27 03:01:00,
2013-05-26 20:16:00,64.5,47.0,30.00,West,275,2.0,-999.0,53,-99.99,,,0.00,weatherlink.com 1.10,2013-05-27 03:16:00,
2013-05-26 20:31:00,63.9,47.0,30.00,West,280,4.0,-999.0,54,-99.99,,,0.00,weatherlink.com 1.10,2013-05-27 03:31:00,
2013-05-26 20:46:00,63.1,46.0,30.01,NW,319,4.0,-999.0,55,-99.99,,,0.00,weatherlink.com 1.10,2013-05-27 03:46:00,
2013-05-26 21:01:00,62.3,46.0,30.02,NW,306,3.0,-999.0,56,-99.99,,,0.00,weatherlink.com 1.10,2013-05-27 04:01:00,
2013-05-26 21:16:00,61.6,46.0,30.03,NW,304,0.0,-999.0,57,-99.99,,,0.00,weatherlink.com 1.10,2013-05-27 04:16:00,
2013-05-26 21:31:00,60.9,46.0,30.03,NW,304,2.0,-999.0,59,-99.99,,,0.00,weatherlink.com 1.10,2013-05-27 04:31:00,
2013-05-26 21:46:00,60.2,46.0,30.04,NW,304,2.0,-999.0,60,-99.99,,,0.00,weatherlink.com 1.10,2013-05-27 04:46:00,
2013-05-26 22:01:00,59.6,46.0,30.04,NW,304,1.0,-999.0,61,-99.99,,,0.00,weatherlink.com 1.10,2013-05-27 05:01:00,
2013-05-26 22:16:00,59.3,46.0,30.04,NW,317,0.0,-999.0,61,-99.99,,,0.00,weatherlink.com 1.10,2013-05-27 05:16:00,
2013-05-26 22:31:00,59.0,46.0,30.05,NW,317,3.0,-999.0,62,-99.99,,,0.00,weatherlink.com 1.10,2013-05-27 05:31:00,
2013-05-26 22:46:00,58.7,46.0,30.05,NW,317,0.0,-999.0,62,-99.99,,,0.00,weatherlink.com 1.10,2013-05-27 05:46:00,
2013-05-26 23:01:00,58.4,45.0,30.05,NW,317,0.0,-999.0,62,-99.99,,,0.00,weatherlink.com 1.10,2013-05-27 06:01:00,
2013-05-26 23:16:00,57.8,45.0,30.05,NW,317,0.0,-999.0,62,-99.99,,,0.00,weatherlink.com 1.10,2013-05-27 06:16:00,
2013-05-26 23:31:00,57.2,45.0,30.05,NW,317,0.0,-999.0,64,-99.99,,,0.00,weatherlink.com 1.10,2013-05-27 06:31:00,
2013-05-26 23:46:00,56.6,45.0,30.05,NW,317,0.0,-999.0,65,-99.99,,,0.00,weatherlink.com 1.10,2013-05-27 06:46:00,